Simultaneous Nadir Overpasses (SNOs) Predictions

Prediction of SNOs between GOES-15 and FY3D Satellite Orbit:

Table of predicted SNOs for the next 14.0 days since TLE Epoch: 2/10/2024
Index Date Time (GOES-15) GOES-15 Lat,Lon FY3D Lat,Lon Distance(km) Time Diff (sec)
1 02/10/2024 10:15:58 -0.01, 61.57 0.05, 61.78 25.24 80
2 02/12/2024 22:19:42 0.00, 61.44 0.10, 60.92 58.82 80
3 02/13/2024 21:58:32 0.00, 61.43 -0.88, 65.41 453.16 80
4 02/15/2024 10:20:52 -0.00, 61.51 -0.36, 60.05 167.43 80
5 02/16/2024 10:05:03 -0.00, 61.50 0.68, 64.52 344.45 80
6 02/17/2024 22:27:16 0.01, 61.40 0.49, 59.18 252.27 80
7 02/18/2024 22:06:06 0.00, 61.39 -0.49, 63.67 259.12 80
8 02/20/2024 10:31:05 0.00, 61.48 -0.73, 58.31 362.51 80
9 02/21/2024 10:12:37 0.00, 61.48 0.32, 62.78 148.86 80
10 02/22/2024 22:32:08 -0.01, 61.38 0.91, 57.45 448.33 80
11 02/23/2024 22:16:20 -0.01, 61.37 -0.15, 61.92 63.08 80
